timestamp,gas_concentrations,,corrected_fluxes_and_quality_flags,,,,,,,,,,storage_terms,,,turbulence,,,footprint,,
ISOdate,CO2_1_1_1,H2O_1_1_1,Tau_1_1_1,QcTau_1_1_1,H_1_1_1,QcH_1_1_1,LE_1_1_1, QcLE_1_1_1,Fc_1_1_1, QcFc_1_1_1,E_1_1_1, QcE_1_1_1,Sa_1_1_1,Sw_1_1_1,Sc_1_1_1,ustar_1_1_1,MO_length_1_1_1,ZL_1_1_1,Fetchmax_1_1_1,Fetch70_1_1_1,Fetch90_1_1_1
yyyymmddHHMM,[µmol+1mol_a-1],[mmol+1mol_a-1],[kg+1m-1s-2],[#],[W+1m-2],[#],[W+1m-2],[#],[µmol+1s-1m-2],[#],[mmol+1s-1m-2],[#],[W+1m-2],[W+1m-2],[µmol+1s-1m-2],[m+1s-1],[m],[#],[m],[m],[m]
201808050030,383.67483784928930,20.404771540491566,1.1632461925602022,0,-61.744816669813275,1,84.768886025896151,2,57.851457443151105,1,1.9160585015006386,2,-9999.,-9999.,-9999.,1.0200796799846032,1442.5774039105083,1.49732000109298654E-002,105.81600570996761,193.46540672190119,289.84643328226366
201808050100,398.08026895616757,20.730062422615259,0.75527420277800983,0,-55.250567474966097,0,11.315563474542158,0,6.9267351403777955,0,0.25579690849909559,0,2.4671058124848191,10.878235532334070,10.890101652344022,0.82219021963189176,844.16416275572192,2.55874401603215784E-002,93.728761180544993,171.36606869319743,256.73759788862452
201808050130,398.99336377479011,20.656415304209634,1.0000342434222806,0,-92.061546421614608,0,108.63714691438973,0,11.723118326159803,0,2.4562781671489722,0,4.2174773826364635,-2.4610569247256020,0.68989178766584602,0.94632782553588202,772.53802170873701,2.79597888945634990E-002,100.50941222476594,183.76326137976582,275.31085159738711
201808050200,397.56360204376170,20.192412569422743,0.73988107748898657,0,-62.419787615180624,0,165.89107193163599,0,8.8158470497704577,0,3.7506042594880533,0,-1.1042254582495972,-15.510017509103459,-1.0805220789041654,0.81381239243387427,724.61821766860464,2.98088006529784767E-002,98.126944958683126,179.40735136840436,268.78490464963909
201808050230,399.23846848436875,18.618855206325808,1.0218384289255567,0,-79.285679440319370,0,197.39267461806645,0,10.291833522554716,0,4.4611733855525308,0,-8.4445995230599902,-52.685037676831485,1.2673686705305602,0.95549383675523147,923.02193183721522,2.34013941109791450E-002,101.54712082621005,185.66052366338920,278.15329622470841
201808050300,400.40060050270620,17.961487017462566,0.72454734049913039,0,-63.178679380639018,0,76.367214533356119,0,8.8288852780143952,0,1.7254593480886695,0,-6.3516628684681224,-22.043290424073927,0.88048302374915799,0.80397850658805192,690.10565615263363,3.12995550861310950E-002,100.93111914615001,184.53427612858016,276.46597218839332
201808050330,401.60588062598521,17.766627039340293,0.59277156366638040,0,-49.440806548184611,0,59.648837827508494,0,7.7199562834780115,0,1.3476955856240387,0,-0.42050084374915192,-6.5346325877735163,0.91322194388835110,0.72715536929773317,652.42398469809314,3.31073052288157754E-002,99.473029973775212,181.86842408778895,272.47204004944359
201808050400,403.08014674964801,17.754582960520953,0.65276167145598285,0,-53.261402719915175,0,49.395204446109105,0,9.6290789310495661,0,1.1159262562458583,0,-2.0664011350239386,-0.40408945263916507,1.1174562293175896,0.76291598849973119,699.47011663899934,3.08805186757505033E-002,111.00946411411451,202.96070505328498,304.07212045257404
201808050430,404.13764632544911,17.766336576712675,0.51665269744811482,0,-53.020021661196473,0,39.969887493976969,0,9.6465265067043315,0,0.90290752087578641,0,-2.1340451946834000,0.39460706103019599,0.80201759068622591,0.67853958240542944,494.43904943274327,4.36858699262954731E-002,101.49794293515841,185.57061079406293,278.01859036218769
201808050500,405.07753039014369,17.787344042720392,0.52691665845872115,0,-65.534794097548854,0,30.509715688423316,0,10.356782985614759,0,0.68906597677424086,0,-4.6407740362821199,0.70595962058348627,0.71335075319469132,0.68499273401121874,411.54973633008035,5.24845434056502094E-002,99.508958568748938,181.93411301823858,272.57045403734747
201808050530,405.60787640170474,17.874916269950187,0.36065062204088938,0,-52.236614315614240,0,17.201253834867554,0,7.3399813223020498,0,0.38846724558330248,0,-1.5006043435631080,2.9439751927782556,0.40264411837331676,0.56662923119442277,292.27220997382318,7.39037077864315717E-002,95.342624792137912,174.31672609058856,261.15822035009182
201808050600,406.01311149459201,18.054503640321279,0.40841682188148620,0,-68.910429249144556,0,21.451546634482355,0,14.041238742951188,0,0.48444755456718408,0,-0.32533439368917477,6.0386954821677872,0.30772483269190115,0.60294204239043137,266.97596586530716,8.09061592117152617E-002,95.044850036743867,173.77229886734105,260.34256916203788
201808050630,406.43193652444575,18.188058652079363,0.38766385739724007,0,-60.476695127755967,0,15.518897894724796,0,11.352382630184580,0,0.35042921717422293,0,-2.5822127745895420,4.4942393336173945,0.31824974718378146,0.58724926770013319,281.12221156076276,7.68349106250940939E-002,104.52469576238425,191.10448029553433,286.30933527844360
201808050700,406.79908098495923,18.286962607716649,0.24150207865846682,0,-43.036339622900350,0,5.4168571550352045,0,7.0542083561268285,0,0.12230728747194590,0,-1.8281576954127308,3.3295634216753358,0.27907154811804774,0.46343824430374003,194.16792775420291,0.11124391267822270,96.379758488369404,176.21293726412668,263.99909022296811
201808050730,406.76226492197293,18.421379321074593,0.29445717676352628,0,-44.437389883650951,0,3.5616145065324685,0,6.7085083711731315,0,8.04124928724666843E-002,0,-1.5028556903687178,4.5263689693965858,-2.79904988967273512E-002,0.51168921449844884,253.11204000750473,8.53377026211774303E-002,100.50588072585246,183.75680467343818,275.30117827474237
201808050800,406.89824485243537,18.572600326122476,0.30120232276449849,0,-51.319753063420521,0,-2.1754833267906624,1,7.1800095394519179,0,-4.91151036792899301E-002,1,-0.91809539961714837,5.0928354576066370,0.10339074043807432,0.51751159605197572,226.73026482976337,9.52673875109615459E-002,99.924130056498782,182.69317890999994,273.70767306312149
201808050830,407.56941836810171,18.680846830929777,0.32310481771545563,0,-47.274408491024857,0,-2.3323098126600303,1,7.9925574984868959,0,-5.26501346592873828E-002,1,-2.4448538589128899,3.6481507229423973,0.51063073133654402,0.53584470304960108,273.27771001308349,7.90404749767768394E-002,110.85441639612748,202.67722837487133,303.64742073209629
201808050900,408.48311966798315,18.746769773517823,0.35114945803923714,0,-49.616159772013823,0,-7.3575911576186490,0,9.0598329514882874,0,-0.16607749993325724,0,-2.0236611629651340,2.2231324736898848,0.69551763747708761,0.55847378777962076,294.82993379103573,7.32625745366454612E-002,113.25366029121275,207.06381141468066,310.21932146581679
201808050930,409.79427929611808,18.734352817165469,0.23393562701278059,0,-37.851723397926285,0,-6.1064305841553281,1,9.8867418310164261,0,-0.13781958559863869,1,-2.7430399556533200,-0.41884444182450853,0.99819797778665997,0.45580107331791198,210.05548744423027,0.10282997251254768,104.95291282813407,191.88739766455333,287.48228816345772
201808051000,409.27752335242553,18.860126200596724,0.17726888167560892,0,-36.801682592657556,0,-16.752125662265712,1,7.0475385911553019,0,-0.37810633142526101,1,1.0894231767152065,4.2407687296241212,-0.39326505108916532,0.39685735714539733,142.58589152143861,0.15148763857013384,104.13745819122337,190.39648651236334,285.24863157789468
201808051030,411.32574064888723,18.831129578967275,0.10393332722017849,0,-16.827830444123414,0,-4.5254628451044647,1,3.0428822443566061,0,-0.10214010182884026,1,-0.57092692140991108,-0.97819832799925588,1.5595123801501953,0.30379927857761513,139.92497893660976,0.15436843488670779,96.211587047718538,175.90546623508686,263.53844259290923
201808051100,415.30811056833551,18.541645053082135,0.12429298812729062,0,-24.352632220734129,0,-10.317827004732683,0,9.6344798523444126,0,-0.23276336975835873,0,-11.018023270968994,-9.7906315634447001,3.0384587633310831,0.33186329707376289,126.06155596893078,0.17134486270599067,98.120724099446292,179.39597765367813,268.76786475241698
201808051130,413.97809724758076,18.677596073902926,8.39007125200552095E-002,0,-19.440395166104530,0,-13.449696753045556,0,3.7568544109724069,0,-0.30344746965852926,0,2.3761897433890184,4.5949464585098418,-1.0142032569068979,0.27274157522325293,87.649987760991436,0.24643471781080004,100.02078383964762,182.86989285173908,273.97242274934302
201808051200,412.46364666212048,18.771588595801745,0.14170078389008303,0,-15.627672512822793,0,-5.4338664537506833,1,2.6858075322448935,0,-0.12260924892983358,1,2.3011118307882006,3.1753006402048363,-1.1544122523929261,0.35452267219003547,239.46530758786830,9.02009573644574625E-002,98.082867428536076,179.32676358548832,268.66416946581410
201808051230,409.92862621856415,19.180063974028059,0.23508637957477097,0,-11.871841839261183,0,-1.7173973491576271,2,1.7026894509675983,0,-3.87643154994993452E-002,2,7.8161416353919284,13.780079123446358,-1.9303169538510436,0.45691428314844890,674.95206318224666,3.20022727216520766E-002,104.03766173496018,190.21402676186699,284.97527362313139
201808051300,406.17380041939646,19.778110016490878,0.30785856332993966,0,2.3914881252212337,0,16.160515847478568,0,-0.53692147475901753,1,0.36495864611198603,0,12.043319302133265,20.125630221900277,-2.8536000156843722,0.52344133654944158,-5037.8916248015448,-4.28750787207552927E-003,106.93520681089504,195.51166328527975,292.91209849097072
201808051330,403.12278787223477,20.403361597033523,0.42550598614933433,0,36.054861114520513,0,34.207743526177737,0,-5.0588472982577688,0,0.77306912033789865,0,16.152915595993118,20.977480037908798,-2.3133237178700488,0.61617264054266851,-545.21055088180560,-3.96177219334161307E-002,105.91144148092228,193.63989374888430,290.10784664438364
201808051400,402.11958038681433,20.784760740782460,0.35160905976318230,0,27.112545207671051,0,14.316280216381884,1,-1.9299440823478182,0,0.32359040218858537,1,3.7806346015602235,12.789929452197859,-0.76040443409306924,0.56024815440558484,-545.13654638828984,-3.96231001995869733E-002,99.106860557546440,181.19894961117728,271.46904528925717
201808051430,401.14960997697034,21.080328902551788,0.38997540565556243,0,26.644222886859239,0,30.584032350369807,0,-2.1881213175674112,0,0.69152260646132058,0,7.7125393567864551,9.8933893320564774,-0.73410397051581011,0.59050131998864297,-649.41446899256005,-3.32607310605632020E-002,104.51386794110319,191.08468358487605,286.27967619844452
201808051500,395.97823726977140,21.643179977874411,0.26274952674331231,0,56.306293056792484,1,61.572578889853830,1,-13.513942567928135,1,1.3932601971868952,1,17.518622153551018,18.767556884130887,-3.9017996572450242,0.48550063994919829,-170.76911530732767,-0.12648657200763253,108.45351915931145,198.28762249907189,297.07099123922973
201808051530,393.31470387668628,22.107160960473660,0.18945435984178705,0,5.5886055122262297,0,31.297626239368036,0,-3.7340663214298950,0,0.70852103330929705,0,10.308571800710130,15.443061923487553,-2.0069323157221510,0.41257397193672191,-1056.1265961349673,-2.04520936022708003E-002,95.624955572759433,174.83291680234882,261.93156809857180
201808051600,388.86257709551836,22.523481447213381,0.43678663145457230,0,96.525570639317010,0,123.58800215038828,0,-18.116269096755996,0,2.7998131210088055,0,16.288061565244487,13.810658446732772,-3.3458530124336874,0.62731589295914159,-214.95124472377339,-0.10048790379305519,117.86626845735731,215.49713025831431,322.85396984547782
201808051630,386.72532894463939,23.127249650840941,0.50608286283515747,0,168.99844230807582,0,179.84732310176003,0,-21.259030255150002,0,4.0793854278084165,0,27.995992330998515,19.916098663980861,-1.5991151702882818,0.67681459442044622,-154.20028504788107,-0.14007756206995944,105.46666675779056,192.82670370137726,288.88953977059009
201808051700,384.83258841496354,23.591305647698526,0.45207613240626432,0,96.139006252894248,0,161.13884474924961,0,-17.198180513983814,0,3.6591423138921062,0,25.277202154204698,15.227972086228098,-1.4103984421141942,0.64104742445229246,-230.31529663814993,-9.37844785617340942E-002,102.94924545746920,188.22405467404607,281.99393281518400
201808051730,382.13688235542401,23.824349753864809,0.72070530228597662,0,222.12604364048207,0,256.76438434325092,0,-25.150067743133093,0,5.8330215095214051,0,9.2857004381341373,7.6341923710203909,-2.0061172186395617,0.80996456732532862,-201.10037295629064,-0.10740904993097543,109.89228159256757,200.91813909680684,301.01198444552040
201808051800,381.10649961619168,23.728024383958516,0.50166798498930454,0,192.04876399723079,0,289.05764333758481,0,-26.874615394039857,0,6.5687012703446213,0,7.0280089466266364,-3.1505759184841584,-0.76584854666815039,0.67617187221920116,-135.30730421316878,-0.15963661478297181,110.54768857039828,202.11643208361579,302.80724569733161
201808051830,381.56832053860307,23.381703656807467,0.38373665553690961,0,158.97772826282227,0,243.57722524493195,0,-21.556798480913926,0,5.5378724451424954,0,10.867689452316776,-11.299431697423916,0.34257683328030358,0.59192519310402081,-109.62527899890671,-0.19703484631692858,103.63812022228403,189.48353744946522,283.88086752057262
201808051900,380.26941680791708,23.709071280962796,0.22215545645678350,0,60.983868667981532,0,128.61118973540610,0,-13.192420774185194,0,2.9245134675889624,0,3.5271419539757263,10.674393686095264,-0.96307325765731788,0.45051246174356763,-126.00963628905605,-0.17141546183381820,88.850440578241830,162.44694277163080,243.37512198057985
201808051930,382.39412077380473,23.381195157041414,0.48342753312136644,0,161.22346684070817,0,353.61909865138824,0,-24.146750461086672,0,8.0475223076488618,0,18.019916512243572,-10.653513242235491,1.5711149552898107,0.66543134767063072,-153.59951757084261,-0.14062544167847227,109.62111137819213,200.42235345962447,300.26920721704954
201808052000,385.88676325121276,21.857145820286970,0.47690161616598520,0,116.31679888151653,0,339.56675222642929,0,-19.750190776811220,0,7.7296804006007624,0,5.6232512085928601,-49.466408320791473,2.5804880960933008,0.66100789449571040,-208.63286287232054,-0.10353114894089721,105.04159149893320,192.04953055738557,287.72519278140174
201808052030,385.60853674706533,21.628242674525843,0.41322195408849666,0,101.34477305064853,0,225.14419464489859,0,-14.295270564365472,0,5.1271452217052023,0,9.1153113600106739,-7.4150411114873913,-0.20524621955821126,0.61574447294697288,-193.53101059704656,-0.11161002018934135,109.62301479249579,200.42583350803443,300.27442096371550
201808052100,386.08825036879489,21.217063494034409,0.56811645667349242,0,57.734522940008056,0,326.06802022366128,0,-16.773878910137068,0,7.4266925554239078,0,3.6924515902912134,-13.309124452780761,0.35366139796636109,0.72215264362249199,-547.96886026961704,-3.94182983123751926E-002,115.91971465206744,211.93820908075003,317.52205740113823
201808052130,385.09310666485220,21.609826366202405,0.52325880880791575,0,15.864683210810233,0,161.06680658797407,0,-9.7944128684637928,0,3.6677945793386821,0,-4.5071415459700139,12.723053524474222,-0.73408387227665939,0.69290543901118073,-1761.5221409359642,-1.22621223418305121E-002,105.85677946188046,193.53995414451907,289.95811890566426
201808052200,383.86541154807810,22.177724911875881,0.16163921735834949,0,-17.119288646988064,0,89.879812756053695,1,-7.0246231225024243,1,2.0449030111492092,1,-19.898061756655313,18.465201245698299,-0.90820601228788089,0.38460870052234258,279.14594796205444,7.73788770988579344E-002,93.505813150251896,170.95844858819436,256.12690869322165
201808052230,382.29575482898940,23.084722343397569,0.24670415747799154,0,10.981649416127048,1,129.58589858861129,0,-9.2635397482147006,0,2.9485320878671235,0,1.9244408914983935,29.476286820310882,-1.1606987422305366,0.47533368517192731,-821.52932686244390,-2.62924271766340548E-002,98.138877485032495,179.42916783225510,268.81758968796771
201808052300,383.62191751590592,23.472580041712948,0.21985449899329929,0,7.7522990514628125,0,106.23351547529660,0,-5.4289073265514824,0,2.4177993202642987,0,5.6601315864657158,12.589450240739541,0.97969265473540590,0.44897386152922608,-980.68703928366244,-2.20253752061183618E-002,93.602841454031619,171.13584727309402,256.39268424947414
201808052330,384.91231812856842,23.566488875086986,0.44556363227935558,0,-15.600692969143124,0,97.587704894019808,0,-6.6469322821309262,0,2.2202793969880643,0,-7.4927217877993186,3.0535361305685340,0.95462697701778665,0.63871627090406147,1403.3390547130332,1.53918612379935187E-002,109.04536395360076,199.36970354224846,298.69214582289089
201808060000,387.08025191208884,22.849145408446081,0.35624224357720125,0,-45.591150238336496,0,78.885378987334590,0,-1.6869897004553374,2,1.7939476594716672,0,-10.238267757841452,-23.383820730105509,1.6071173524534339,0.57045341023022522,342.17595458785274,6.31254175239080451E-002,103.80857061388600,189.79517512767779,284.34775755035514
